Volver al catálogo

STARLINK-5082

ActivoComunicacionesVLEO
NORAD 54845·PAYLOAD·🇺🇸 United States

Lanzado Dec 28, 2022 desde Cape Canaveral Space Force Station

Loading…

Próximos Pases (próximas 24 horas)

TLE

ActualizadoSource: CelesTrak SupGP

Época: Sep 14, 2026, 22:03 UTC

1 54845C 22177AB  26257.91923611 -.00026007  00000+0 -94220-3 0  2572
2 54845  43.0010 144.0543 0000917 243.3921  83.2077 15.27583529    13

Sigue STARLINK-5082 en tiempo real con AllMySat

Download on the App Store